THORAD AGENA D DEB, 42531

Orbit data source: Space-Track

THORAD AGENA D DEB, 42531 is space debris in SSO originally from a launch on Wed, 08 Apr 1970 UTC launched from the Air Force Western Test Range (AFWTR). Debris objects in space refer to the collection of defunct objects orbiting the Earth. Examples of debris include non-operational satellites, rocket bodies, and fragments generated from explosions, collisions, or faulty payload assembly.

Loading next visibility...
Identifier
42531, 1970-025SM
Orbit
SSO
Country
Flag of USUS
Related business
Manufacturer
Unknown
Mission
Spacecraft
Bus & Motor
Unknown
Mass
Unknown
Launch date (UTC)
1970-04-08 (56 years ago)
Launch vehicle
Unknown
Launch site
Air Force Western Test Range (AFWTR)
Object type
Payload
Rocket body
Debris
Shape & HBR
Unknown shape, 0.1 m
Radar Cross Section
Small (<0.1 m²)

Expand to show TLE details & history
Last TLE update: 1 day ago

TLE from 1 day ago
0 THORAD AGENA D DEB
1 42531U 70025SM  25297.07345977  .00000362  00000-0  62986-3 0  9991
2 42531  99.7769  51.9952 0053511 144.4395  35.2496 13.50183710586940
Epoch: 2025-10-24T01:45Z
TLE epoch observation values (Epoch: 2025-10-24T01:45:46.924Z)
Latitude
-0.15727°
Longitude
172.79913°
Altitude
1,041.897 km
Speed
7.347 km/s
True Right ascension
15h 27m 52s
True Declination
0° 09' 23"
Sunlit
Object was in daylight at epoch
Visualization orbit readout
Latitude
Unknown
Longitude
Unknown
Altitude
Unknown
Speed
Unknown
Apparent Right ascension
Unknown
Apparent Declination
Unknown
Sunlit
N/A
Visualization observer readout
Local Sidereal Time
07:25:31
Azimuth
Unknown
Elevation
Unknown
Doppler factor
Unknown
Orbital elements
Apogee altitude
1,108.737 km
Perigee altitude
1,029.038 km
Semi-major axis
7,447.025 km
Eccentricity
0.00535
Inclination
99.7769°
RAAN
51.9952°
Arg. of periapsis
144.4395°
True anomaly
35.60544°
Mean anomaly
35.2496°
Eccentric anomaly
35.42732°
Mean motion
3.37729 °/min
Orbital period
106.59 mins
BSTAR
0.00062986

Documentation

Showing up to 5 results
|